Location: DARK SKY Beskydy - Park tmavé oblohy, www.darkskybeskydy.cz
(49.4926°N, 18.5016°E)
Time: 07:25:17
(UTC+02:00)

Envisat - Pass Details

Date: 20 June 2024
Orbit: 762 x 764 km, 98.3° (Epoch: 12 July)

Event Time Altitude Azimuth Distance (km) Brightness Sun altitude
Rises 02:35:03 0° 30° (NNE) 3,237 8.3 -13.3°
Reaches altitude 10° 02:38:41 10° 57° (ENE) 2,304 6.4 -13.0°
Maximum altitude 02:41:06 13° 86° (E) 2,070 5.6 -12.8°
Drops below altitude 10° 02:43:32 10° 115° (ESE) 2,295 5.5 -12.6°
Sets 02:47:06 0° 142° (SE) 3,214 6.0 -12.4°
